Regional Weather Roundup
Issued by NWS

Home | Current Version | Previous Version | Graphics & Text | Print | Product List | Glossary Off
Versions: 1 2 3 4 5 6 7 8 9 10 11 12 13 14 15 16 17 18 19 20 21 22 23 24 25 26 27 28 29 30 31 32 33 34 35 36 37 38 39 40 41 42 43 44 45 46 47 48 49 50

000
ASUS43 KMPX 300401
RWRMN
WEATHER ROUNDUP FOR MINNESOTA
NATIONAL WEATHER SERVICE TWIN CITIES/CHANHASSEN MN
1000 PM CST THU JAN 29 2015


NOTE: "FAIR" INDICATES FEW OR NO CLOUDS BELOW 12,000 FEET WITH NO
SIGNIFICANT WEATHER AND/OR OBSTRUCTIONS TO VISIBILITY. N/A MEANS
CURRENT SKY AND/OR WEATHER CONDITIONS ARE NOT AVAILABLE.

MNZ060>063-068>070-300500-
   Twin Cities Metro

CITY           SKY/WX    TMP DP  RH WIND       PRES   REMARKS
TWIN CITIES    CLEAR     18   5  57 NW15      30.50S WCI   4
ST PAUL        CLEAR     16   6  65 NW9       30.52R WCI   4
CRYSTAL        CLEAR     17   5  59 N9        30.50R WCI   6
BLAINE         CLEAR     16   9  73 NW7       30.50R WCI   6
LAKEVILLE      CLEAR     16   7  67 N9        30.49R WCI   4
EDEN PRAIRIE   CLEAR     17   5  59 N7        30.50R WCI   8
SOUTH ST PAUL  CLEAR     18   7  62 N9        30.50R WCI   6
LAKE ELMO      FAIR      16   9  73 NW7       30.50R WCI   6
$$
MNZ001>005-007-008-013>017-022>024-027-028-300500-
   Northwest Minnesota

CITY           SKY/WX    TMP DP  RH WIND       PRES   REMARKS
BEMIDJI        MOCLDY    -1  -4  87 W5        30.49S WCI -11
HALLOCK        PTCLDY     1  -4  78 CALM      30.57S
ROSEAU         PTCLDY     0  -8  71 W5        30.54R WCI -10
WARROAD        MOCLDY    -2  -8  78 CALM      30.53S
THIEF RVR FALL PTCLDY     0  -2  92 NW3       30.55R
CROOKSTON      PTCLDY     3   0  85 N6        30.59S WCI  -8
FOSSTON        PTCLDY    -2  -6  84 CALM      30.53S
DETROIT LAKES  PTCLDY     5   1  85 NW5       30.53R WCI  -4
MOORHEAD       FAIR       9   5  85 N3        30.60R
PARK RAPIDS    MOCLDY     4   0  83 NW6       30.48S WCI  -7
MAHNOMEN       FAIR       3  -1  83 N7        30.53S WCI  -9
$$
MNZ006-009>011-018-025>026-300500-
   North Central Minnesota

CITY           SKY/WX    TMP DP  RH WIND       PRES   REMARKS
BAUDETTE       MOCLDY    -2  -8  76 NW8       30.49S WCI -17
FLAG ISLAND    PTCLDY    -2  -8  78 NW12      30.51S WCI -20
INTL FALLS     PTCLDY   -10 -12  91 CALM      30.48R
WASKISH        MOCLDY     0  -4  85 CALM      30.50S
BIG FORK       PTCLDY    -2  -8  78 CALM      30.48S
LONGVILLE      PTCLDY     5   0  78 NW5       30.49S WCI  -4
GRAND RAPIDS   PTCLDY     3  -2  78 N9        30.46R WCI -11
CRANE LAKE     CLOUDY     5  -2  72 NW6       30.49R WCI  -6
ORR            CLOUDY     3  -4  72 CALM      30.44R
COOK           CLOUDY     5  -2  72 N6        30.46R WCI  -6
WALKER         FAIR       3  -2  79 CALM      30.49S
$$
MNZ012-019>021-037-300500-
   Northeast Minnesota

CITY           SKY/WX    TMP DP  RH WIND       PRES   REMARKS
DULUTH         MOCLDY     7  -1  70 NW6       30.43R WCI  -3
ELY            CLOUDY     7   0  72 NW7       30.41S WCI  -5
HIBBING        CLOUDY     5  -3  69 NW10      30.46R WCI -10
EVELETH        PTCLDY     7   0  72 NW7       30.46R WCI  -5
DULUTH HARBOR  CLEAR     12   3  67 NW9       30.52R WCI   0
TWO HARBORS    CLOUDY    10   5  79 W3        30.44R
SILVER BAY     CLOUDY    12   1  62 CALM      30.42S
GRAND MARAIS     N/A      8  -3  61 VRB3      30.47R
G MARAIS ARPRT PTCLDY     1  -8  66 NW8       30.34R WCI -12
$$
MNZ029>031-032-039>041-046>048-054>057-064-300500-
   West Central Minnesota

CITY           SKY/WX    TMP DP  RH WIND       PRES   REMARKS
FERGUS FALLS   FAIR       7   0  72 N8        30.60R WCI  -6
WHEATON        MOCLDY    10   7  85 N5        30.60R WCI   2
MORRIS         CLEAR     10   7  85 N7        30.55R WCI   0
ALEXANDRIA     CLEAR      8   3  80 NW7       30.52R WCI  -3
ELBOW LAKE     FAIR       8   4  81 N6        30.55R WCI  -2
WADENA         CLEAR      3   1  92 NW6       30.50S WCI  -8
GLENWOOD       CLEAR     10   5  79 NW9       30.53R WCI  -2
APPLETON       PTCLDY    16  10  79 NW7       30.58R WCI   6
BENSON         CLEAR     10   7  85 N9        30.56R WCI  -2
ORTONVILLE     FLURRIES  18  10  73 N9        30.56S WCI   6
MADISON        CLOUDY    21  16  79 N8        30.57R WCI  12
WILLMAR        FAIR      14   9  79 NW10      30.55R WCI   1
$$
MNZ033>034-036-042>043-049>051-058-059-300500-
   Central Minnesota

CITY           SKY/WX    TMP DP  RH WIND       PRES   REMARKS
ST CLOUD       CLEAR     13   6  74 NW5       30.51R WCI   5
SAUK CENTRE    FAIR      10   5  81 NW7       30.51S WCI  -2
PAYNESVILLE    CLEAR     10   6  84 W7        30.53R WCI  -1
AITKIN         PTCLDY    10   1  67 NW3       30.47S
PINE RIVER     PTCLDY     7   1  78 N8        30.51S WCI  -6
BRAINERD       MOCLDY     9   3  77 N9        30.50R WCI  -4
STAPLES        CLEAR      5   1  85 NW6       30.50S WCI  -6
LONG PRAIRIE   FAIR       9   5  85 W6        30.51S WCI  -1
LITTLE FALLS   CLEAR     12   5  73 NW5       30.51R WCI   4
LITCHFIELD     CLEAR     14  10  85 NW8       30.53R WCI   3
BUFFALO        CLEAR     16   9  74 W6        30.52R WCI   7
MAPLE LAKE     CLEAR     15  10  80 NW7       30.52R WCI   6
$$
MNZ037-044-045-052-053-300500-
   East Central Minnesota

CITY           SKY/WX    TMP DP  RH WIND       PRES   REMARKS
PRINCETON      CLEAR     14   7  73 NW3       30.50R
MORA           CLEAR     10   5  79 N5        30.51R WCI   2
CAMBRIDGE      CLEAR     16   5  62 NW5       30.49R WCI   9
RUSH CITY      CLEAR     12   5  74 NW3       30.51R
MOOSE LAKE     CLEAR     10   3  72 N6        30.47R WCI   1
HINCKLEY       FAIR      12   5  73 CALM      30.49R
CLOQUET        CLEAR      7   0  72 NW7       30.46R WCI  -5
MCGREGOR       CLOUDY    10   5  79 NW6       30.48S WCI   1
$$
MNZ071>073-080-081-089-090-097-098-300500-
   Southwest Minnesota

CITY           SKY/WX    TMP DP  RH WIND       PRES   REMARKS
MONTEVIDEO     PTCLDY    14  10  85 N5        30.57S WCI   6
GRANITE FALLS  PTCLDY    15  11  85 NW5       30.58R WCI   7
CANBY          CLOUDY    19  13  76 N9        30.57R WCI   8
MARSHALL       CLOUDY    18  10  73 N13       30.56R WCI   4
REDWOOD FALLS  CLEAR     16  10  77 NW10      30.55R WCI   4
OLIVIA         CLEAR     14  10  85 NW12      30.54R WCI   0
PIPESTONE      CLOUDY    21  16  79 N6        30.50S WCI  14
WINDOM         CLEAR     16  12  86 NW13      30.52R WCI   2
WORTHINGTON    CLOUDY    19  12  73 N10       30.52S WCI   8
JACKSON        PTCLDY    19  14  79 NW17G24   30.52R WCI   4
TRACY          CLOUDY    19  15  82 N10       30.54R WCI   8
SLAYTON        CLOUDY    19  15  82 CALM      30.52S
$$
MNZ065>067-074>077-082>085-091>093-300500-
   South Central Minnesota

CITY           SKY/WX    TMP DP  RH WIND       PRES   REMARKS
MANKATO        CLEAR     18   9  68 NW14      30.50R WCI   4
NEW ULM        FAIR      16  10  79 NW13      30.53R WCI   2
ST JAMES       CLEAR     18  12  79 NW13      30.54R WCI   4
FAIRMONT       FAIR      18  10  73 NW12      30.50R WCI   5
GLENCOE        CLEAR     18  12  79 NW10      30.51R WCI   6
FARIBAULT      CLEAR     18   9  68 NW9G17    30.48R WCI   6
OWATONNA       CLEAR     18   9  68 NW10G20   30.47R WCI   6
WASECA         CLEAR     19  14  79 NW10      30.50R WCI   8
ALBERT LEA     CLEAR     19  14  79 NW13G18   30.46R WCI   7
$$
MNZ078>079-086>088-094>096-300500-
   Southeast Minnesota

CITY           SKY/WX    TMP DP  RH WIND       PRES   REMARKS
ROCHESTER      CLEAR     18  10  71 N23G29    30.43R WCI   0
RED WING       CLEAR     18   7  62 NW6       30.49R WCI   9
STANTON        CLEAR     19   9  63 VRB13     30.48R WCI   7
DODGE CENTER   PTCLDY    19  12  73 N13G20    30.44R WCI   7
WINONA         MOCLDY    23  12  63 NW13      30.46R WCI  11
AUSTIN         CLEAR     19  14  79 NW9       30.45R WCI   9
PRESTON        PTCLDY    19  11  73 N15G21    30.42R WCI   4
$$
ABBREVIATIONS USED IN REMARKS
   TC - TEMPERATURES IN CELSIUS
  WCI - WIND CHILL INDEX
   HX - HEAT INDEX
  VSB - VISIBILITY
$$


USA.gov is the U.S. government's official web portal to all federal, state and local government web resources and services.